Zurück zum Katalog

STARLINK-30573

AktivKommunikationVLEO
NORAD 58058·PAYLOAD·🇺🇸 United States

Gestartet Oct 13, 2023 von Cape Canaveral Space Force Station

Loading…

Nächste Überflüge (nächste 24 Stunden)

TLE

AktuellSource: CelesTrak SupGP

Epoche: Sep 15, 2026, 01:54 UTC

1 58058C 23158H   26258.07965278 -.00220940  00000+0 -79985-2 0  2588
2 58058  43.0021  37.3939 0001663 270.9572 160.8912 15.27704633    16

Verfolge STARLINK-30573 in Echtzeit mit AllMySat

Download on the App Store